Main page
METAR-TAF:

METAR-TAF

Airports :

Ormond Beach Municipal Airport

Ormond Beach, Florida, United States

latitude: 29-18-04N, longitude: 081-06-49W, elevation: 30 ft

Current weather observation

The report was made 9 hours and 50 minutes ago, at 23:50 UTC
Wind 5 mph from the East/Southeast
Temperature 75°F
Humidity 78%
Pressure 30.11 in. Hg
Visibility: 10 miles
Clear sky

METAR: KOMN 282350Z 12004KT 10SM CLR 24/20 A3011 RMK LAST

Time: 04:40 (09:40 UTC)


TAF: missing

Weather observations and forecasts of more than 4000 airports (METAR and TAF reports).

The available stations are represented by yellow and red dots on the map.

Hover mouse over dot to see the name of the station.

Then click to see weather observations and forecasts.

To change the map : click on the green buttons with a black cross to zoom in, on the green button with a dash to zoom out, or on the green arrows for adjacent maps.


METAR-TAF: